STARLINK-11153, 60067

Orbit data source: Space-Track

STARLINK-11153, 60067 is a payload satellite owned by SpaceX/Seattle (US) in LEO that was launched on Wed, 19 Jun 2024 UTC via an FALCON 9 launch vehicle from the Air Force Western Test Range (AFWTR). Payload-class satellites include a variety of spacecraft equipped with specific instruments for various scientific and technological missions. These include communications satellites like Starlink; space stations such as the ISS; scientific satellites like the Hubble; Earth observation satellites from companies like Planet Labs, Umbra, and HawkEye 360; GPS; miniature CubeSats for education and research; and military/defense satellites.

Loading next visibility...
Identifier
60067, 2024-113J
Orbit
LEO
Last TLE update
6 hours ago
Origin
Manufacturer
SpaceX/Seattle
Mission
Operational Commercial Communications
Bus & Motor
STARLINK V2M, Unknown motor
Mass
730 kg wet, ~700 kg dry
Launch date (UTC)
2024-06-19 (11 months ago)
Launch vehicle
FALCON 9
Launch site
Air Force Western Test Range (AFWTR)
Object type
Payload
Rocket body
Debris
Shape & HBR
Box + 2 Pan, 29 m
Radar Cross Section
33.884 m², Large (>1 m²)

Expand to show TLE details & history

TLE from 6 hours ago
0 STARLINK-11153
1 60067U 24113J   25131.56645641 -.00001521  00000-0 -77055-5 0  9999
2 60067  53.1596 240.9845 0000761  74.5608 285.5494 15.69703640 52416
Epoch: 2025-05-11T13:35Z
Definitive object data (Epoch: 2025-05-11T13:35:41.833Z)
Latitude
-0.00004°
Longitude
167.46812°
Altitude
360.523 km
Speed
7.694 km/s
True Right ascension
16h 03m 56s
True Declination
0° 00' 00"
Sunlit
Object was in full shadow at TLE epoch
Visualization TLE readout
Latitude
41.99909°
Longitude
-151.71015°
Altitude
363.271 km
Speed
7.697 km/s
Apparent Right ascension
17h 32m 25s
Apparent Declination
2° 33' 01"
Sunlit
Object is in daylight
Visualization observer readout
Local Sidereal Time
04:15:44
Azimuth
332.846° NNW
Elevation
-44.042°
Doppler factor
1
Orbital elements
Apogee altitude
360.518 km
Perigee altitude
359.493 km
Semi-major axis
6,738.143 km
Eccentricity
0.0000761
Inclination
53.1596°
RAAN
240.9845°
Arg. of periapsis
74.5608°
True anomaly
285.541°
Mean anomaly
285.5494°
Eccentric anomaly
285.5452°
Mean motion
3.92403 °/min
BSTAR
-0.0000077055
Orbital period
91.74 mins
Loading maneuver chart data...
Loading SW <> Apogee altitude chart data...
Loading historical data...
Loading historical data...
Loading historical data...
Loading historical data...
Loading historical data...
Loading historical data...
Loading historical data...

STARLINK-11153 Visibility forecast

Observer location: undefined°, undefined°

Span
Click to sort rows by Start time (UTC) header in descending order
Start Az.
Max El. time (UTC)
Max El. Az.
Max El.
End time (UTC)
End Az.
5 mins2025-05-12 09:37:47.671Z211.173° SW2025-05-12 09:40:47.671Z104.244° ESE35.025°2025-05-12 09:42:47.671Z62.032° ENE
|